Location: Praha
(50.0830°N, 14.4670°E)
Time: 07:18:34
(UTC+01:00)

ISS - Visible Passes

Search period start: 19 February 2019 00:00
Search period end: 01 March 2019 00:00
Orbit: 403 x 411 km, 51.6° (Epoch: 19 February)

Date Brightness Start Highest point End Pass type
(mag) Time Alt. Az. Time Alt. Az. Time Alt. Az.
24 Feb -0.9 05:43:51 10° S 05:45:43 14° SE 05:47:36 10° ESE visible
26 Feb -2.0 05:36:03 10° SSW 05:38:53 27° SE 05:41:43 10° E visible
27 Feb -1.5 04:46:29 16° SSE 04:47:31 18° SE 04:49:48 10° E visible
28 Feb -3.1 05:29:55 18° SW 05:32:06 49° SSE 05:35:18 10° ENE visible
